Location: Treviso
(45.6669°N, 12.2430°E)
Time: 06:01:30
(UTC+01:00)

ISS - Pass Details

Date: 11 November 2018
Orbit: 402 x 408 km, 51.6° (Epoch: 16 November)

Event Time Altitude Azimuth Distance (km) Brightness Sun altitude
Exits shadow 05:08:42 56° 19° (NNE) 489 -3.5 -20.3°
Maximum altitude 05:08:44 56° 23° (NNE) 489 -3.4 -20.3°
Drops below altitude 10° 05:11:58 10° 103° (ESE) 1,461 0.2 -19.8°
Sets 05:14:04 0° 108° (ESE) 2,320 1.5 -19.4°
